AirNav   Everest Fuels
 
 1347 users online  

PS01 Sterling Heliport
Croydon, Pennsylvania, USA

GOING TO CROYDON?


FAA INFORMATION EFFECTIVE 02 JANUARY 2020

Location

FAA Identifier: PS01
Lat/Long: 40-04-52.6000N 074-53-39.2000W
40-04.876667N 074-53.653333W
40.0812778,-74.8942222
(estimated)
Elevation: 24 ft. / 7 m (estimated)
From city: 1 mile SE of CROYDON, PA
Time zone: UTC -5 (UTC -4 during Daylight Saving Time)
Zip code: 19021

Heliport Operations

Heliport use: Private use. Permission required prior to landing
Activation date: 10/2006
Control tower: no
ARTCC: NEW YORK CENTER
FSS: WILLIAMSPORT FLIGHT SERVICE STATION
Attendance: MON-FRI 0800-1700
Wind indicator: yes
Segmented circle: no

Heliport Communications

WX ASOS at PNE (5 nm W): 121.15 (215-677-0146)
WX ASOS at VAY (9 nm S): 119.325 (609-267-1176)
WX ASOS at TTN (12 nm N): 126.775 (609-538-8690)
WX AWOS-3 at LOM (17 nm W): 118.925 (215-646-1068)
WX ASOS at DYL (18 nm NW): 118.875 (215-345-0392)

Nearby radio navigation aids

VOR radial/distance  VOR name  Freq  Var
ARDr187/10.3YARDLEY VOR/DME108.2010W
GXUr299/14.3MC GUIRE VORTAC110.6012W
RBVr258/19.7ROBBINSVILLE VORTAC113.8010W
CYNr317/26.5COYLE VORTAC113.4010W
SBJr203/30.9SOLBERG VOR/DME112.9010W
PTWr114/31.7POTTSTOWN VORTAC116.5009W
OODr045/32.7WOODSTOWN VORTAC112.8010W
VCNr016/32.8CEDAR LAKE VOR/DME115.2010W
COLr259/36.4COLTS NECK VOR/DME115.4011W
MXEr084/37.0MODENA VORTAC113.2009W

 
NDB name  Hdg/Dist  Freq  Var  ID
AMBLER110/18.127512WING .. -. --.
LAKEHURST286/25.839611WNEL -. . .-..

Heliport Services

Airframe service: MAJOR
Powerplant service: MAJOR

Runway Information

Helipad H1

Dimensions: 50 x 50 ft. / 15 x 15 m
Surface: concrete, in good condition
Traffic pattern: leftleft

Heliport Ownership and Management from official FAA records

Ownership: Privately-owned
Owner: STERLING HELICOPTER
1226 RIVER ROAD
CROYDON, PA 19021
Phone 215-271-2510
Manager: PHIL BIDDEN
1226 RIVER ROAD
CROYDON, PA 19021
Phone 215-271-2510

Additional Remarks

CALL PRIOR TO USE FOR PERMISSION, NOISE ABATEMENT PROC & PREF FLT ROUTE.
AVOID OVR FLT OF HOMES & SCHOOL 0.5 NM NE.
FOR CD CTC PHILADELPHIA APCH AT 800-354-9884.

Instrument Procedures

There are no published instrument procedures at PS01.

Some nearby airports with instrument procedures:

KPNE - Northeast Philadelphia Airport (5 nm W)
KVAY - South Jersey Regional Airport (9 nm S)
N14 - Flying W Airport (10 nm SE)
KTTN - Trenton Mercer Airport (12 nm N)
KWRI - McGuire Field (Joint Base Mc Guire Dix Lakehurst) Airport (14 nm E)
N87 - Trenton-Robbinsville Airport (16 nm NE)
KLOM - Wings Field Airport (17 nm W)
19N - Camden County Airport (18 nm S)
KDYL - Doylestown Airport (18 nm NW)
 
Loc | Ops | Rwys | IFR | FBO | Links
Com | Nav | Svcs | Stats | Notes
Area around PS01 (Sterling Heliport)
 
Road maps at: MapQuest Bing Google
 
Aerial photo
No photo
 
Sectional chart

 
Airport distance calculator
Flying to Sterling Heliport? Find the distance to fly.

From to PS01

Sunrise and sunset
Times for 25-Jan-2020
 Local
(UTC-5)
 Zulu
(UTC)
Morning civil twilight06:4611:46
Sunrise07:1512:15
Sunset17:0922:09
Evening civil twilight17:3822:38

Current date and time
Zulu (UTC)  25-Jan-2020 23:25:31
Local (UTC-5)  25-Jan-2020 18:25:31
 
METAR
KPNE 
6nm W 
252254Z 28008KT 10SM OVC016 09/06 A2981 RMK AO2 SLP096 T00890056
KVAY 
9nm S 
ASOS 119.325 609-267-1176
252254Z AUTO 27008KT 10SM OVC015 08/06 A2981 RMK AO2 RAE21 SLP092 P0002 T00830056
KTTN 
13nm N 
ASOS 133.70 609-538-8690
252304Z 27008KT 10SM SCT008 OVC015 07/06 A2978 RMK AO2 T00720061
KWRI 
15nm E 
252256Z 28009KT 10SM OVC009 09/08 A2978 RMK AO2A SLP085 T00880079
KLOM 
17nm W 
252255Z AUTO 27007KT 250V310 10SM OVC013 07/05 A2981 RMK AO2 T00660052
KDYL 
18nm NW 
252254Z AUTO 24007KT 10SM OVC008 07/05 A2979 RMK AO2 SLP090 T00720050
TAF
KPNE 
6nm W 
251734Z 2518/2618 33008KT P6SM SCT008 OVC012 TEMPO 2518/2521 4SM -RA BR OVC008 FM252100 29006KT P6SM SCT008 OVC015 FM252300 28008KT P6SM SCT015 BKN025 FM260200 27008KT P6SM SCT040 FM261100 26008KT P6SM SCT040 BKN080 FM261600 27010G18KT P6SM BKN050
KTTN 
13nm N 
251734Z 2518/2618 34008KT 4SM -RA BR OVC004 TEMPO 2518/2522 2SM RA SCT004 OVC012 FM252200 29006KT P6SM OVC008 FM260000 30008KT P6SM SCT015 BKN025 FM260300 29004KT P6SM SCT040 FM261100 27006KT P6SM SCT040 BKN080 FM261600 28008G16KT P6SM BKN050
KWRI 
15nm E 
251900Z 2519/2624 18010G15KT 8000 -RA BR FEW005 BKN035 QNH2975INS BECMG 2520/2521 19010G15KT 9999 NSW BKN035 QNH2975INS BECMG 2522/2523 29011KT 9999 BKN040 QNH2977INS BECMG 2616/2617 26010G15KT 9999 SCT040 QNH2982INS BECMG 2620/2621 26008KT 9999 SCT040 QNH2983INS TX13/2519Z TN01/2611Z
NOTAMs
Click for the latest NOTAMs
NOTAMs are issued by the DoD/FAA and will open in a separate window not controlled by AirNav.

 

 
 

Would you like to see your business listed on this page?

 If your business provides an interesting product or service to pilots, flight crews, aircraft, or users of the Sterling Heliport, you should consider listing it here.  To start the listing process, click on the button below
 
Add a business
 

Other Pages about Sterling Heliport

Update a link
 
Copyright © AirNav, LLC. All rights reserved. Privacy Policy  Contact